STARLINK-35411

Satellite information

Favourite Embed

Satellite Type and Status

PAYLOADIN ORBIT

Key statistics

Satellite STARLINK-35411 at a glance.

Uptime

29

Days in orbit

Revolutions

≈ 15.5

Per day

Orbit

LEO

Low Earth Orbit

Inclination

43.0

Latest

Satellite identification and parameters

Extended collection of information and parameters for STARLINK-35411.

Object identification

Identified? True

Debris? False

Object name: STARLINK-35411

International designator: 2025-268D

Object number (NORAD): 66560

Object ID (CCSDS): 66560

Country: UNITED STATES OF AMERICA (US)

Current information (Y/N): Y

Orbital parameters

Period: 92.866 minutes

Inclination: 43.0007 deg

SMA: 6793.054 km

Apoapsis: 415.769 km

Periapsis: 414.069 km

RAAN: 87.0147 deg

Eccentricy: 0.00012512

Argument of periapsis: 266.9937 deg

Mean anomaly: 93.078 deg

Mean motion: 15.50619101 rev/day

Mean motion (dot): 0.00066265 rev/day2

B* drag term: 0.0011242099 1/REarth

Two-line elements (TLE)

Creation date: Dec. 18, 2025, 8:02 p.m.

Reference frame: TEME

Reference center: EARTH

Epoch: Dec. 18, 2025, 1:59 p.m. UTC

TLE line 0: 0 STARLINK-35411

TLE line 1: 1 66560U 25268D 25352.58283397 .00066265 00000-0 11242-2 0 9995

TLE line 2: 2 66560 43.0007 87.0147 0001251 266.9937 93.0780 15.50619101 5536

Live tracking on map

Real-time ground track for satellite STARLINK-35411.

In-orbit conjunctions

There are no conjunctions computed for STARLINK-35411, at the moment. Check back to stay up to date, as we update our databases every day.

Go to all conjunctions

Associated space launch

A batch of 29 satellites for the Starlink mega-constellation - SpaceX's project for space-based Internet communication system.

STARLINK-35411 was lifted into orbit during the mission ‘Falcon 9 Block 5 | Starlink Group 6-78’, on board a Falcon 9 space rocket.

The launch took place on Nov. 21, 2025, 3:39 a.m. from Launch Complex 39A.

For more information about the launch, click the button.

Launch to space Falcon 9 Block 5 | Starlink Group 6-78
Falcon 9 Block 5 | Starlink Group 6-78

Agency: SpaceX

Status: Launch Successful

Launch date: Nov. 21, 2025, 3:39 a.m. UTC

Rocket: Falcon 9

Launch pad: Launch Complex 39A

Location: Kennedy Space Center, FL, USA

...

Latest news about this satellite

News about space launch
Florida Space Coast tops 100 launches as Space Force pushes for range upgrades

Col. Brian Chatman: The volume is here to stay. The next step is making sure the infrastructure can keep up The post Florida Space Coast tops 100 launches as Space Force pushes for range upgrades appeared first on SpaceNews.

News about space launch
Live coverage: Falcon 9 Starlink mission marks 100th launch of the year from Florida’s Space Coast

The Starlink 6-78 mission, carrying 29 satellites for SpaceX’s internet service, is targeted to roar away from launch complex 39A at 10:12 p.m. EST (0321 UTC).

News about space launch
Launch Roundup: Innospace to debut new rocket, SpaceX to launch five Falcon 9 missions

Another busy week of launches has arrived, with SpaceX planning to launch five Falcon 9… The post Launch Roundup: Innospace to debut new rocket, SpaceX to launch five Falcon 9 missions appeared first on NASASpaceFlight.com.


Newsletter sign-up

Weekly statistics, charts and insights to help you stay on top of the space industry.